sat.trackr.live / text

‹ back to catalog

STARLINK-36363

NORAD 67890 · 2026-035M

PAYLOAD ACTIVE UNKNOWN

§ Identity

Operator
Country
US
Launch date
2026-02-21
Launch site
AFWTR
Launch vehicle
Mass (kg)
RCS (m²)

Purposes: comms

External: N2YO · Heavens-Above · Gunter

§ Orbital elements

Epoch: 2026-05-24T19:47:46.170816Z

Period
93.91 min
Inclination
97.2843°
Eccentricity
0.0001812
Mean motion
15.33459315 rev/d
Perigee alt
464.3 km
Apogee alt
466.7 km
Semi-major
6,843.6 km
B*
8.8570e-4
RAAN
78.3186°
Arg perigee
99.4452°
Mean anomaly
260.6996°
Rev number
1,565

§ Raw data

STARLINK-363631 67890U 26035M   26144.82483994  .00028641  00000+0  88570-3 0  99912 67890  97.2843  78.3186 0001812  99.4452 260.6996 15.33459315 15657

JSON: /api/v1/satellites/67890 · /tle

For live sub-satellite position, see the globe view (requires WebGL).

§ Visibility from observer

Set your observer location to see the next 7 days of passes ≥ 10°. The values pass through the URL so the page stays shareable.

No JS? Fill the form by hand. The geolocation button needs JavaScript.